星链-37254(STARLINK-37254)

导读

STARLINK-37254(NORAD编号68553)是美国太空探索技术公司(SpaceX)星链(Starlink)星座中的一颗低轨互联网通信卫星,属于星链项目组网卫星之一。星链计划旨在构建全球覆盖的低轨卫星互联网系统,最终计划部署超4万颗卫星,为全球提供高速低时延互联网接入服务。该卫星由SpaceX通过可重复使用的猎鹰9号火箭发射入轨,运行在近地轨道,属于星链二代组网卫星范畴,工作在Ku/Ka频段,承担全球卫星互联网通信覆盖任务,截至2026年仍在轨运行,是星链星座万颗在轨卫星中的一员,支撑星链全球互联服务的正常运营。

Basic Information
目录编号:
68553
目录名称:
STARLINK-37254
国际标识:
2026-070M
轨道中心:
EARTH
卫星名称:
星链-37254
卫星全名:
星链-37254(STARLINK-37254)
卫星状态:
在轨 (已飞行162 天)
发射日期:
2026-04-02 UTC
国别 :
美国 (US)
星等 :
--
Orbit Information
数据来源 国际轨道数据 AOE轨道数据
星历时间 2026-09-10T23:16:51+0800
13小时前
查看轨道信息
2026-09-06T23:00:00+0800
4天前
查看轨道信息
半长轴 6840.832km 6840.741km
偏心率 0.0002644 0.0000632
轨道倾角 53.158° 53.157°
近地点辐角 86.310° 104.322°
升交点赤经 219.784° 238.540°
平近点角 273.820° 43.751°
近地点 460.886km 462.171km
远地点 464.504km 463.037km
周期 93.848分钟 93.846分钟
每日圈数 15.34403 15.344335
Detailed Information
固有亮度:
5
最大亮度:
2.5
卫星平台:
Starlink V1.0
覆盖范围:
全球
运营商:
太空探索技术公司
运营商所在国:
美国
制造商(研发单位):
太空探索技术公司
制造商所在国:
美国
使用方式:
暂无
Satellite Introduction
Starlink 计划是 SpaceX 推出的全球卫星互联网项目,通过发射低轨道卫星,为全球尤其是偏远地区提供高速、低延迟的互联网服务。自 2019 年起,Starlink 已部署数千颗卫星,旨在缩小全球数字鸿沟,推动互联网普及。该项目还为军事、航空等行业提供通信支持,带来广泛经济效益。
2D Orbit Map
3D Orbit Map
Orbit Altitude Analysis Chart
Orbit Inclination Analysis Chart
Orbit Comprehensive Analysis Chart
View Comprehensive Chart
Conjunction Data List
Event ID Objects TCA Miss Dist (km) Collision Risk Probability Collision Risk Index (CRI) Action
CDM_260913-114106-003106-855321
2026-09-13T
11:41:52+0000
0.550 km
远距离
5.299324E-5 中风险 0.69
CDM_260913-144505-174206-855321
2026-09-13T
14:45:49+0000
1.176 km
极远距离
4.697208E-6 低风险 0.48
CDM_260912-070705-267606-855321
2026-09-12T
07:07:18+0000
2.449 km
极远距离
1.626566E-6 低风险 0.39
CDM_260913-092106-003106-855321
2026-09-13T
09:21:11+0000
1.865 km
极远距离
1.12144E-6 低风险 0.36
Miss Distance Evolution Trend with All Objects
Collision Probability Evolution Trend with All Objects